Погода в Кампус-дус-Гойтаказис

Бразилия     21°45′16″S   41°19′27″W
темп.,
°C
ветер,
м/с
пор.,
м/с
влажн.,
%
обл.,
%
осадки,
мм/ч
давл.,
гПа
погр.,
м
28 сентября, вт
вт2800:00+22всв41089100 0.1 1020539
03:00+22всв5108961 0.3 1018581
06:00+22св5108919 0.1 1018632
09:00+25св786885 0.4 10201095
12:00+27всв776237 0.1 10181032
15:00+27всв766124 0.2 1016989
18:00+23всв610820 0.0 1016518
21:00+22св712863 0.0 1017573
29 сентября, ср
ср2900:00+22св6128732 0.0 1015591
03:00+21ссв59897 0.0 1014426
06:00+20с36920 0.0 1014232
09:00+28ссв56565 0.0 1014828
12:00+33св56385 0.0 10121773
15:00+28всв995430 0.0 1009533
18:00+23св51278100 0.0 1011505
21:00+23св4882100 0.6 1014473
30 сентября, чт
чт3000:00+22ююз3389100 0.2 1012163
03:00+22юз479016 0.2 1011338
06:00+21юз48927 0.0 1013343
09:00+27ююз556120 0.0 10151026
12:00+30ю65437 0.0 10131500
15:00+30ю86479 0.0 10111340
18:00+24ююв58690 0.0 1013536
21:00+22ююз35870 0.0 1016191
1 октября, пт
пт100:00+21зюз23943 0.0 101575
03:00+20сз11952 0.0 101313
06:00+21св11910 0.0 101455
09:00+27св346118 0.0 1014932
12:00+31всв66485 0.0 10111345
15:00+29всв77570 0.0 1009707
18:00+24всв71381100 0.0 1010542
21:00+24вюв2485100 0.9 1014356
2 октября, сб
сб200:00+23св3688100 0.7 1011372
03:00+23з2392100 0.7 1011170
06:00+23ссв3489100 0.0 1012143
09:00+28с676196 0.0 1011722
12:00+34с34393 0.0 10101895
15:00+28в66602 0.6 1009633
18:00+23св268761 2.4 1011356
21:00+24ю3386100 4.9 1013428